Everett, WA
on Friday, November 9, 2012

Friday
Previous Day Next Day
Daily Summary
 ActualAverageRecord
Temperature
Mean Temperature °F °F  
Max Temperature 44°F 52°F 63°F (1953)
Min Temperature 35°F 38°F 25°F (1948)
Degree Days
Heating Degree Days 26    
Moisture
Dew Point 33°F   
Average Humidity 82    
Maximum Humidity 93    
Minimum Humidity 55    
Precipitation
Precipitation 0.00 in in in ()
Wind
Wind Speed 1 mph   
Max Wind Speed 5 mph   
Max Gust Speed mph   
Visibility 10 miles   
Events     
Averages and records for this station are not official NWS values.
Key: T is trace of precipitation, MM is missing value
Source: NWS Daily Summary
Seasonal Weather Averages
Time(PST)TemperatureDew PointHumidity Pressure Visibility Wind DirectionWind SpeedGust SpeedPrecipitationEvents Conditions
12:53 AM 39.0°F 34.0°F 82% 29.84 in 10.0 miles NNE 3.5 mph - N/A   Clear
1:53 AM 37.0°F 33.1°F 86% 29.84 in 10.0 miles Calm Calm - N/A   Clear
2:53 AM 35.1°F 33.1°F 92% 29.85 in 7.0 miles Calm Calm - N/A   Clear
3:53 AM 36.0°F 33.1°F 89% 29.85 in 7.0 miles Calm Calm - N/A   Clear
4:53 AM 35.1°F 33.1°F 92% 29.86 in 10.0 miles Calm Calm - N/A   Clear
5:53 AM 35.1°F 33.1°F 92% 29.86 in 10.0 miles Calm Calm - N/A   Clear
6:29 AM 35.6°F 33.8°F 93% 29.86 in 10.0 miles Calm Calm - N/A   Partly Cloudy
6:53 AM 35.1°F 32.0°F 89% 29.87 in 10.0 miles Calm Calm - N/A   Scattered Clouds
7:14 AM 35.6°F 33.8°F 93% 29.86 in 10.0 miles NNE 4.6 mph - N/A   Mostly Cloudy
7:53 AM 35.1°F 33.1°F 92% 29.89 in 10.0 miles Calm Calm - N/A   Mostly Cloudy
8:00 AM 35.6°F 33.8°F 93% 29.88 in 6.0 miles Calm Calm - N/A   Mostly Cloudy
8:07 AM 35.6°F 33.8°F 93% 29.88 in 10.0 miles Calm Calm - N/A   Mostly Cloudy
8:53 AM 39.0°F 35.1°F 86% 29.89 in 10.0 miles Calm Calm - N/A   Mostly Cloudy
9:00 AM 39.2°F 35.6°F 87% 29.88 in 10.0 miles North 3.5 mph - N/A   Partly Cloudy
9:39 AM 37.4°F 35.6°F 93% 29.88 in 10.0 miles Calm Calm - N/A   Overcast
9:53 AM 39.0°F 35.1°F 86% 29.90 in 10.0 miles Calm Calm - N/A   Overcast
10:18 AM 39.2°F 35.6°F 87% 29.89 in 10.0 miles NNE 3.5 mph - N/A   Overcast
10:28 AM 39.2°F 35.6°F 87% 29.89 in 10.0 miles North 4.6 mph - N/A   Overcast
10:53 AM 39.9°F 35.1°F 83% 29.91 in 10.0 miles NNE 4.6 mph - N/A   Overcast
11:43 AM 41.0°F 35.6°F 81% 29.89 in 10.0 miles Calm Calm - N/A   Scattered Clouds
11:53 AM 42.1°F 35.1°F 76% 29.91 in 10.0 miles North 3.5 mph - N/A   Clear
12:53 PM 44.1°F 33.1°F 65% 29.89 in 10.0 miles NNE 4.6 mph - N/A   Clear
1:53 PM 44.1°F 28.9°F 55% 29.89 in 10.0 miles North 3.5 mph - N/A   Clear
2:53 PM 44.1°F 30.0°F 58% 29.89 in 10.0 miles North 3.5 mph - N/A   Clear
3:53 PM 43.0°F 30.9°F 62% 29.89 in 10.0 miles Calm Calm - N/A   Scattered Clouds
4:53 PM 39.9°F 32.0°F 73% 29.90 in 10.0 miles Calm Calm - N/A   Clear
5:53 PM 39.9°F 32.0°F 73% 29.91 in 10.0 miles Calm Calm - N/A   Clear
6:53 PM 37.9°F 32.0°F 79% 29.92 in 10.0 miles NNW 3.5 mph - N/A   Clear
7:53 PM 36.0°F 30.9°F 82% 29.93 in 10.0 miles WNW 3.5 mph - N/A   Clear
8:53 PM 37.0°F 28.0°F 70% 29.94 in 10.0 miles Calm Calm - N/A   Clear
9:53 PM 36.0°F 27.0°F 70% 29.94 in 10.0 miles Calm Calm - N/A   Clear
10:53 PM 35.1°F 28.0°F 76% 29.95 in 10.0 miles Calm Calm - N/A   Clear
11:53 PM 36.0°F 32.0°F 86% 29.96 in 10.0 miles Calm Calm - N/A   Clear
Moon Phase
Nov. 09 Nov. 13 Nov. 20 Nov. 28 Dec. 06
Sunrise:07:07 AM (PST) Moon Rise:01:51 AM (PST)11/9
Sunset:04:38 PM (PST) Moon Set:02:11 PM (PST)11/9

Copyright © 2014 The Weather Underground, Inc.